TimeCDT,TemperatureF,Dew PointF,Humidity,Sea Level PressureIn,VisibilityMPH,Wind Direction,Wind SpeedMPH,Gust SpeedMPH,PrecipitationIn,Events,Conditions,WindDirDegrees,DateUTC
12:52 AM,75.9,64.0,67,29.98,10.0,SSE,4.6,-,N/A,,Clear,150,2013-09-07 05:52:00
1:52 AM,73.0,64.0,73,29.99,10.0,Calm,Calm,-,N/A,,Clear,0,2013-09-07 06:52:00
2:52 AM,69.1,64.0,84,29.99,10.0,Calm,Calm,-,N/A,,Clear,0,2013-09-07 07:52:00
3:52 AM,68.0,64.0,87,29.99,10.0,Calm,Calm,-,N/A,,Clear,0,2013-09-07 08:52:00
4:52 AM,69.1,63.0,81,29.99,10.0,Calm,Calm,-,N/A,,Clear,0,2013-09-07 09:52:00
5:52 AM,68.0,63.0,84,29.99,10.0,Calm,Calm,-,N/A,,Clear,0,2013-09-07 10:52:00
6:52 AM,66.0,62.1,87,30.00,10.0,Calm,Calm,-,N/A,,Clear,0,2013-09-07 11:52:00
7:52 AM,71.1,62.1,73,30.01,10.0,Calm,Calm,-,N/A,,Clear,0,2013-09-07 12:52:00
8:52 AM,75.9,62.1,62,30.01,10.0,South,5.8,-,N/A,,Clear,180,2013-09-07 13:52:00
9:52 AM,81.0,63.0,54,30.02,10.0,South,9.2,-,N/A,,Clear,180,2013-09-07 14:52:00
10:52 AM,84.9,63.0,48,30.01,10.0,SSW,6.9,-,N/A,,Clear,200,2013-09-07 15:52:00
11:52 AM,89.1,64.0,43,30.01,10.0,SSW,8.1,-,N/A,,Clear,210,2013-09-07 16:52:00
12:52 PM,90.0,64.9,43,29.99,10.0,South,9.2,-,N/A,,Clear,180,2013-09-07 17:52:00
1:52 PM,93.0,66.0,41,29.98,10.0,Variable,3.5,-,N/A,,Clear,0,2013-09-07 18:52:00
2:52 PM,95.0,66.0,38,29.95,10.0,Variable,6.9,-,N/A,,Clear,0,2013-09-07 19:52:00
3:52 PM,96.1,66.0,37,29.93,10.0,SSW,5.8,-,N/A,,Clear,200,2013-09-07 20:52:00
4:52 PM,95.0,66.9,40,29.92,10.0,Variable,5.8,-,N/A,,Clear,0,2013-09-07 21:52:00
5:52 PM,93.9,66.0,40,29.91,10.0,South,6.9,-,N/A,,Clear,190,2013-09-07 22:52:00
6:52 PM,90.0,69.1,50,29.90,10.0,Calm,Calm,-,N/A,,Clear,0,2013-09-07 23:52:00
7:52 PM,80.1,71.1,74,29.92,10.0,Calm,Calm,-,N/A,,Clear,0,2013-09-08 00:52:00
8:52 PM,78.1,69.1,74,29.92,10.0,Calm,Calm,-,N/A,,Clear,0,2013-09-08 01:52:00
9:52 PM,79.0,66.9,66,29.92,10.0,Calm,Calm,-,N/A,,Clear,0,2013-09-08 02:52:00
10:52 PM,75.9,68.0,76,29.93,10.0,Calm,Calm,-,N/A,,Clear,0,2013-09-08 03:52:00
11:52 PM,77.0,64.9,66,29.93,10.0,Calm,Calm,-,N/A,,Clear,0,2013-09-08 04:52:00